Location: Unspecified
(0.0000°N, 0.0000°E)
Time: 06:26:50
(UTC+00:00)

Altair - All Passes

Search period start: 19 June 2018 00:00
Search period end: 29 June 2018 00:00
Orbit: 1501 x 1683 km, 47.2° (Epoch: 18 June)

Date Brightness Start Highest point End Pass type
(mag) Time Alt. Az. Time Alt. Az. Time Alt. Az.
19 Jun - 07:23:19 10° N 07:31:37 29° NE 07:39:46 10° ESE daylight
19 Jun - 09:26:28 10° NW 09:36:25 64° SW 09:46:06 10° SSE daylight
19 Jun - 11:39:51 10° SW 11:41:40 11° SW 11:43:28 10° SSW daylight
19 Jun - 20:12:02 10° SSW 20:21:00 57° SE 20:30:10 10° NE visible
19 Jun - 22:17:52 10° WSW 22:25:34 29° NW 22:33:31 10° N visible
20 Jun - 06:58:31 10° N 07:06:23 25° NE 07:14:06 10° E daylight
20 Jun - 09:01:10 10° NW 09:11:14 71° SW 09:21:02 10° SSE daylight
20 Jun - 11:12:31 10° WSW 11:16:22 13° SW 11:20:10 10° SSW daylight
20 Jun - 19:47:02 10° SSW 19:55:52 51° SE 20:04:50 10° ENE visible
20 Jun - 21:52:23 10° WSW 22:00:23 33° NW 22:08:38 10° NNE visible
21 Jun - 06:33:45 10° N 06:41:07 22° NE 06:48:22 10° E daylight
21 Jun - 08:35:55 10° NW 08:46:03 79° SW 08:55:56 10° SE daylight
21 Jun - 10:46:01 10° WSW 10:51:04 15° SW 10:56:05 10° SSW daylight
21 Jun - 19:22:05 10° SSW 19:30:43 45° SE 19:39:28 10° ENE visible
21 Jun - 21:26:55 10° WSW 21:35:12 37° NW 21:43:44 10° NNE visible
22 Jun - 06:09:04 10° N 06:15:51 20° NE 06:22:32 10° E daylight
22 Jun - 08:10:41 10° NW 08:20:52 87° SW 08:30:49 10° SE daylight
22 Jun - 10:19:48 10° W 10:25:48 17° SW 10:31:43 10° S daylight
22 Jun - 18:57:09 10° SSW 19:05:34 40° SE 19:14:03 10° ENE visible
22 Jun - 21:01:32 10° WSW 21:10:01 42° NW 21:18:46 10° NNE visible
23 Jun - 05:44:30 10° N 05:50:33 17° NE 05:56:33 10° E daylight
23 Jun - 07:45:29 10° NW 07:55:41 85° NE 08:05:39 10° SE daylight
23 Jun - 09:53:48 10° W 10:00:32 20° SW 10:07:12 10° S daylight
23 Jun - 18:32:17 10° SSW 18:40:25 35° SE 18:48:36 10° ENE visible
23 Jun - 20:36:11 10° WSW 20:44:52 47° NW 20:53:47 10° NNE visible
24 Jun - 05:20:05 10° NNE 05:25:15 15° NE 05:30:22 10° ENE visible
24 Jun - 07:20:19 10° NW 07:30:29 77° NE 07:40:27 10° SE daylight
24 Jun - 09:27:56 10° W 09:35:17 23° SW 09:42:33 10° S daylight
24 Jun - 18:07:26 10° S 18:15:15 31° SE 18:23:05 10° ENE daylight
24 Jun - 20:10:52 10° SW 20:19:43 53° NW 20:28:47 10° NNE visible
25 Jun - 04:55:55 10° NNE 04:59:55 13° NE 05:03:55 10° ENE visible
25 Jun - 06:55:11 10° NNW 07:05:18 69° NE 07:15:13 10° SE daylight
25 Jun - 09:02:10 10° W 09:10:03 26° SW 09:17:50 10° S daylight
25 Jun - 17:42:38 10° S 17:50:04 27° SE 17:57:31 10° ENE daylight
25 Jun - 19:45:35 10° SW 19:54:34 60° NW 20:03:44 10° NNE visible
26 Jun - 04:32:26 10° NNE 04:34:35 11° NE 04:36:44 10° NE visible
26 Jun - 06:30:05 10° NNW 06:40:06 62° NE 06:49:58 10° SE daylight
26 Jun - 08:36:28 10° WNW 08:44:49 29° SW 08:53:03 10° S daylight
26 Jun - 17:17:53 10° S 17:24:53 24° SE 17:31:52 10° E daylight
26 Jun - 19:20:21 10° SW 19:29:26 67° NW 19:38:41 10° NNE visible
26 Jun - 21:32:34 10° WNW 21:34:38 11° NW 21:36:43 10° NNW visible
27 Jun - 06:05:01 10° NNW 06:14:54 56° NE 06:24:39 10° SE daylight
27 Jun - 08:10:52 10° WNW 08:19:36 33° SW 08:28:14 10° SSE daylight
27 Jun - 16:53:12 10° S 16:59:41 21° SE 17:06:09 10° E daylight
27 Jun - 18:55:09 10° SW 19:04:17 75° NW 19:13:35 10° NE visible
27 Jun - 21:05:38 10° WNW 21:09:21 13° NW 21:13:07 10° NNW visible
28 Jun - 05:39:58 10° NNW 05:49:41 50° NE 05:59:18 10° ESE visible
28 Jun - 07:45:19 10° WNW 07:54:23 37° SW 08:03:20 10° SSE daylight
28 Jun - 16:28:36 10° S 16:34:28 18° SE 16:40:19 10° E daylight
28 Jun - 18:29:58 10° SW 18:39:09 83° NW 18:48:28 10° NE visible
28 Jun - 20:39:20 10° WNW 20:44:04 15° NW 20:48:54 10° NNW visible
